Location: Unspecified
(0.0000°N, 0.0000°E)
Time: 15:12:55
(UTC+00:00)

AAUSAT3 - Pass Details

Date: 05 August 2024
Orbit: 756 x 773 km, 98.4° (Epoch: 17 September)

Event Time Altitude Azimuth Distance (km) Brightness Sun altitude
Rises 18:33:24 0° 358° (N) 3,203 ? -6.6°
Reaches altitude 10° 18:35:48 10° 351° (N) 2,283 ? -7.1°
Maximum altitude 18:40:29 40° 282° (WNW) 1,114 ? -8.3°
Drops below altitude 10° 18:45:13 10° 213° (SSW) 2,303 ? -9.4°
Sets 18:47:39 0° 206° (SSW) 3,234 ? -10.0°
